Time,TemperatureF,DewpointF,PressureIn,WindDirection,WindDirectionDegrees,WindSpeedMPH,WindSpeedGustMPH,Humidity,HourlyPrecipIn,Conditions,Clouds,dailyrainin,SolarRadiationWatts/m^2,SoftwareType,DateUTC
2013-07-23 00:02:00,60.0,49.0,-100.00,NW,323,8.0,16.0,66,0.00,,,0.00,0.000000,,2013-07-23 05:02:00,
2013-07-23 00:22:00,59.0,50.0,-100.00,NNW,340,8.0,15.0,73,0.00,,,0.00,0.000000,,2013-07-23 05:22:00,
2013-07-23 00:33:00,59.0,50.0,-100.00,NNW,340,8.0,15.0,73,0.00,,,0.00,0.000000,,2013-07-23 05:33:00,
2013-07-23 00:44:00,59.0,50.0,-100.00,NNW,340,8.0,15.0,73,0.00,,,0.00,0.000000,,2013-07-23 05:44:00,
2013-07-23 00:52:00,59.0,50.0,-100.00,NNW,340,8.0,15.0,73,0.00,,,0.00,0.000000,,2013-07-23 05:52:00,
2013-07-23 01:01:00,59.0,50.0,-100.00,NNW,340,8.0,15.0,73,0.00,,,0.00,0.000000,,2013-07-23 06:01:00,
2013-07-23 01:22:00,56.0,47.0,-100.00,NNW,338,6.0,16.0,72,0.00,,,0.00,0.000000,,2013-07-23 06:22:00,
2013-07-23 01:33:00,56.0,47.0,-100.00,NNW,338,6.0,16.0,72,0.00,,,0.00,0.000000,,2013-07-23 06:33:00,
2013-07-23 01:42:00,56.0,47.0,-100.00,NNW,338,6.0,16.0,72,0.00,,,0.00,0.000000,,2013-07-23 06:42:00,
2013-07-23 01:52:00,56.0,47.0,-100.00,NNW,338,6.0,16.0,72,0.00,,,0.00,0.000000,,2013-07-23 06:52:00,
2013-07-23 02:01:00,56.0,47.0,-100.00,NNW,338,6.0,16.0,72,0.00,,,0.00,0.000000,,2013-07-23 07:01:00,
2013-07-23 02:22:00,55.0,47.0,-100.00,NNW,336,7.0,17.0,75,0.00,,,0.00,0.000000,,2013-07-23 07:22:00,
2013-07-23 02:33:00,55.0,47.0,-100.00,NNW,336,7.0,17.0,75,0.00,,,0.00,0.000000,,2013-07-23 07:33:00,
2013-07-23 02:42:00,55.0,47.0,-100.00,NNW,336,7.0,17.0,75,0.00,,,0.00,0.000000,,2013-07-23 07:42:00,
2013-07-23 02:52:00,55.0,47.0,-100.00,NNW,336,7.0,17.0,75,0.00,,,0.00,0.000000,,2013-07-23 07:52:00,
2013-07-23 03:01:00,55.0,47.0,-100.00,NNW,336,7.0,17.0,75,0.00,,,0.00,0.000000,,2013-07-23 08:01:00,
2013-07-23 03:22:00,54.0,48.0,-100.00,NNW,337,7.0,14.0,81,0.00,,,0.00,0.000000,,2013-07-23 08:22:00,
2013-07-23 03:33:00,54.0,48.0,-100.00,NNW,337,7.0,14.0,81,0.00,,,0.00,0.000000,,2013-07-23 08:33:00,
2013-07-23 03:43:00,54.0,48.0,-100.00,NNW,337,7.0,14.0,81,0.00,,,0.00,0.000000,,2013-07-23 08:43:00,
2013-07-23 03:52:00,54.0,48.0,-100.00,NNW,337,7.0,14.0,81,0.00,,,0.00,0.000000,,2013-07-23 08:52:00,
2013-07-23 04:01:00,54.0,48.0,-100.00,NNW,337,7.0,14.0,81,0.00,,,0.00,0.000000,,2013-07-23 09:01:00,
2013-07-23 04:22:00,53.0,47.0,-100.00,NNW,337,8.0,14.0,80,0.00,,,0.00,0.000000,,2013-07-23 09:22:00,
2013-07-23 04:33:00,53.0,47.0,-100.00,NNW,337,8.0,14.0,80,0.00,,,0.00,0.000000,,2013-07-23 09:33:00,
2013-07-23 04:43:00,53.0,47.0,-100.00,NNW,337,8.0,14.0,80,0.00,,,0.00,0.000000,,2013-07-23 09:43:00,
2013-07-23 04:53:00,53.0,47.0,-100.00,NNW,337,8.0,14.0,80,0.00,,,0.00,0.000000,,2013-07-23 09:53:00,
2013-07-23 05:02:00,53.0,47.0,-100.00,NNW,337,8.0,14.0,80,0.00,,,0.00,0.000000,,2013-07-23 10:02:00,
2013-07-23 05:22:00,53.0,47.0,-100.00,NNW,337,7.0,12.0,81,0.00,,,0.00,0.000000,,2013-07-23 10:22:00,
2013-07-23 05:32:00,53.0,47.0,-100.00,NNW,337,7.0,12.0,81,0.00,,,0.00,0.000000,,2013-07-23 10:32:00,
2013-07-23 05:44:00,53.0,47.0,-100.00,NNW,337,7.0,12.0,81,0.00,,,0.00,0.000000,,2013-07-23 10:44:00,
2013-07-23 05:52:00,53.0,47.0,-100.00,NNW,337,7.0,12.0,81,0.00,,,0.00,0.000000,,2013-07-23 10:52:00,
2013-07-23 06:02:00,53.0,47.0,-100.00,NNW,337,7.0,12.0,81,0.00,,,0.00,0.000000,,2013-07-23 11:02:00,
2013-07-23 06:22:00,54.0,47.0,-100.00,North,352,8.0,12.0,78,0.00,,,0.00,4.000000,,2013-07-23 11:22:00,
2013-07-23 06:32:00,54.0,47.0,-100.00,North,352,8.0,12.0,78,0.00,,,0.00,4.000000,,2013-07-23 11:32:00,
2013-07-23 06:43:00,54.0,47.0,-100.00,North,352,8.0,12.0,78,0.00,,,0.00,4.000000,,2013-07-23 11:43:00,
2013-07-23 06:52:00,54.0,47.0,-100.00,North,352,8.0,12.0,78,0.00,,,0.00,4.000000,,2013-07-23 11:52:00,
2013-07-23 07:02:00,54.0,47.0,-100.00,North,352,8.0,12.0,78,0.00,,,0.00,4.000000,,2013-07-23 12:02:00,
2013-07-23 07:22:00,55.0,46.0,-100.00,North,357,6.0,13.0,72,0.00,,,0.00,108.000000,,2013-07-23 12:22:00,
2013-07-23 07:33:00,55.0,46.0,-100.00,North,357,6.0,13.0,72,0.00,,,0.00,108.000000,,2013-07-23 12:33:00,
2013-07-23 07:43:00,55.0,46.0,-100.00,North,357,6.0,13.0,72,0.00,,,0.00,108.000000,,2013-07-23 12:43:00,
2013-07-23 08:01:00,55.0,46.0,-100.00,North,357,6.0,13.0,72,0.00,,,0.00,108.000000,,2013-07-23 13:01:00,
2013-07-23 08:22:00,56.0,46.0,-100.00,NNE,12,8.0,14.0,69,0.00,,,0.00,212.000000,,2013-07-23 13:22:00,
2013-07-23 08:32:00,56.0,46.0,-100.00,NNE,12,8.0,14.0,69,0.00,,,0.00,212.000000,,2013-07-23 13:32:00,
2013-07-23 08:43:00,56.0,46.0,-100.00,NNE,12,8.0,14.0,69,0.00,,,0.00,212.000000,,2013-07-23 13:43:00,
2013-07-23 08:52:00,56.0,46.0,-100.00,NNE,12,8.0,14.0,69,0.00,,,0.00,212.000000,,2013-07-23 13:52:00,
2013-07-23 09:02:00,56.0,46.0,-100.00,NNE,12,8.0,14.0,69,0.00,,,0.00,212.000000,,2013-07-23 14:02:00,
2013-07-23 09:22:00,58.0,45.0,-100.00,North,5,8.0,15.0,63,0.00,,,0.00,398.000000,,2013-07-23 14:22:00,
2013-07-23 09:33:00,58.0,45.0,-100.00,North,5,8.0,15.0,63,0.00,,,0.00,398.000000,,2013-07-23 14:33:00,
2013-07-23 09:44:00,58.0,45.0,-100.00,North,5,8.0,15.0,63,0.00,,,0.00,398.000000,,2013-07-23 14:44:00,
2013-07-23 09:53:00,58.0,45.0,-100.00,North,5,8.0,15.0,63,0.00,,,0.00,398.000000,,2013-07-23 14:53:00,
2013-07-23 10:03:00,58.0,45.0,-100.00,North,5,8.0,15.0,63,0.00,,,0.00,398.000000,,2013-07-23 15:03:00,
2013-07-23 10:24:00,59.0,45.0,-100.00,NNW,348,9.0,14.0,60,0.00,,,0.00,434.000000,,2013-07-23 15:24:00,
2013-07-23 10:32:00,59.0,45.0,-100.00,NNW,348,9.0,14.0,60,0.00,,,0.00,434.000000,,2013-07-23 15:32:00,
2013-07-23 10:43:00,59.0,45.0,-100.00,NNW,348,9.0,14.0,60,0.00,,,0.00,434.000000,,2013-07-23 15:43:00,
2013-07-23 10:52:00,59.0,45.0,-100.00,NNW,348,9.0,14.0,60,0.00,,,0.00,434.000000,,2013-07-23 15:52:00,
2013-07-23 11:01:00,59.0,45.0,-100.00,NNW,348,9.0,14.0,60,0.00,,,0.00,434.000000,,2013-07-23 16:01:00,
2013-07-23 11:22:00,63.0,49.0,-100.00,NE,54,8.0,14.0,60,0.00,,,0.00,688.000000,,2013-07-23 16:22:00,
2013-07-23 11:33:00,63.0,49.0,-100.00,NE,54,8.0,14.0,60,0.00,,,0.00,688.000000,,2013-07-23 16:33:00,
2013-07-23 11:43:00,63.0,49.0,-100.00,NE,54,8.0,14.0,60,0.00,,,0.00,688.000000,,2013-07-23 16:43:00,
2013-07-23 11:52:00,63.0,49.0,-100.00,NE,54,8.0,14.0,60,0.00,,,0.00,688.000000,,2013-07-23 16:52:00,
2013-07-23 12:02:00,63.0,49.0,-100.00,NE,54,8.0,14.0,60,0.00,,,0.00,688.000000,,2013-07-23 17:02:00,
2013-07-23 12:04:00,65.0,47.0,-100.00,NNE,26,8.0,12.0,53,0.00,,,0.00,808.000000,,2013-07-23 17:04:00,
2013-07-23 12:22:00,65.0,47.0,-100.00,NNE,26,8.0,12.0,53,0.00,,,0.00,808.000000,,2013-07-23 17:22:00,
2013-07-23 12:32:00,65.0,47.0,-100.00,NNE,26,8.0,12.0,53,0.00,,,0.00,808.000000,,2013-07-23 17:32:00,
2013-07-23 12:42:00,65.0,47.0,-100.00,NNE,26,8.0,12.0,53,0.00,,,0.00,808.000000,,2013-07-23 17:42:00,
2013-07-23 12:56:00,65.0,47.0,-100.00,NNE,26,8.0,12.0,53,0.00,,,0.00,808.000000,,2013-07-23 17:56:00,
2013-07-23 13:26:00,67.0,47.0,-100.00,NNE,21,7.0,15.0,48,0.00,,,0.00,917.000000,,2013-07-23 18:26:00,
2013-07-23 13:49:00,67.0,47.0,-100.00,NNE,21,7.0,15.0,48,0.00,,,0.00,917.000000,,2013-07-23 18:49:00,
2013-07-23 13:57:00,67.0,47.0,-100.00,NNE,21,7.0,15.0,48,0.00,,,0.00,917.000000,,2013-07-23 18:57:00,
2013-07-23 14:03:00,67.0,47.0,-100.00,NNE,21,7.0,15.0,48,0.00,,,0.00,917.000000,,2013-07-23 19:03:00,
2013-07-23 14:04:00,67.0,46.0,-100.00,NNE,23,7.0,15.0,46,0.00,,,0.00,845.000000,,2013-07-23 19:04:00,
2013-07-23 14:28:00,67.0,46.0,-100.00,NNE,23,7.0,15.0,46,0.00,,,0.00,845.000000,,2013-07-23 19:28:00,
2013-07-23 14:35:00,67.0,46.0,-100.00,NNE,23,7.0,15.0,46,0.00,,,0.00,845.000000,,2013-07-23 19:35:00,
2013-07-23 14:49:00,67.0,46.0,-100.00,NNE,23,7.0,15.0,46,0.00,,,0.00,845.000000,,2013-07-23 19:49:00,
2013-07-23 14:55:00,67.0,46.0,-100.00,NNE,23,7.0,15.0,46,0.00,,,0.00,845.000000,,2013-07-23 19:55:00,
2013-07-23 15:04:00,68.0,48.0,-100.00,North,9,5.0,15.0,48,0.00,,,0.00,665.000000,,2013-07-23 20:04:00,
2013-07-23 15:35:00,68.0,48.0,-100.00,North,9,5.0,15.0,48,0.00,,,0.00,665.000000,,2013-07-23 20:35:00,
2013-07-23 15:47:00,68.0,48.0,-100.00,North,9,5.0,15.0,48,0.00,,,0.00,665.000000,,2013-07-23 20:47:00,
2013-07-23 15:59:00,68.0,48.0,-100.00,North,9,5.0,15.0,48,0.00,,,0.00,665.000000,,2013-07-23 20:59:00,
2013-07-23 16:04:00,71.0,49.0,-100.00,NNW,336,6.0,14.0,46,0.00,,,0.00,838.000000,,2013-07-23 21:04:00,
2013-07-23 16:38:00,71.0,49.0,-100.00,NNW,336,6.0,14.0,46,0.00,,,0.00,838.000000,,2013-07-23 21:38:00,
2013-07-23 16:48:00,71.0,49.0,-100.00,NNW,336,6.0,14.0,46,0.00,,,0.00,838.000000,,2013-07-23 21:48:00,
2013-07-23 16:57:00,71.0,49.0,-100.00,NNW,336,6.0,14.0,46,0.00,,,0.00,838.000000,,2013-07-23 21:57:00,
2013-07-23 17:04:00,68.0,45.0,-100.00,North,8,6.0,13.0,44,0.00,,,0.00,484.000000,,2013-07-23 22:04:00,
2013-07-23 17:24:00,68.0,45.0,-100.00,North,8,6.0,13.0,44,0.00,,,0.00,484.000000,,2013-07-23 22:24:00,
2013-07-23 17:36:00,68.0,45.0,-100.00,North,8,6.0,13.0,44,0.00,,,0.00,484.000000,,2013-07-23 22:36:00,
2013-07-23 17:47:00,68.0,45.0,-100.00,North,8,6.0,13.0,44,0.00,,,0.00,484.000000,,2013-07-23 22:47:00,
2013-07-23 18:00:00,68.0,45.0,-100.00,North,8,6.0,13.0,44,0.00,,,0.00,484.000000,,2013-07-23 23:00:00,
2013-07-23 18:26:00,67.0,44.0,-100.00,North,359,5.0,12.0,44,0.00,,,0.00,370.000000,,2013-07-23 23:26:00,
2013-07-23 18:37:00,67.0,44.0,-100.00,North,359,5.0,12.0,44,0.00,,,0.00,370.000000,,2013-07-23 23:37:00,
2013-07-23 18:46:00,67.0,44.0,-100.00,North,359,5.0,12.0,44,0.00,,,0.00,370.000000,,2013-07-23 23:46:00,
2013-07-23 18:59:00,67.0,44.0,-100.00,North,359,5.0,12.0,44,0.00,,,0.00,370.000000,,2013-07-23 23:59:00,
2013-07-23 19:04:00,69.0,50.0,-100.00,North,353,4.0,9.0,51,0.00,,,0.00,244.000000,,2013-07-24 00:04:00,
2013-07-23 19:26:00,69.0,50.0,-100.00,North,353,4.0,9.0,51,0.00,,,0.00,244.000000,,2013-07-24 00:26:00,
2013-07-23 19:34:00,69.0,50.0,-100.00,North,353,4.0,9.0,51,0.00,,,0.00,244.000000,,2013-07-24 00:34:00,
2013-07-23 19:50:00,69.0,50.0,-100.00,North,353,4.0,9.0,51,0.00,,,0.00,244.000000,,2013-07-24 00:50:00,
2013-07-23 19:58:00,69.0,50.0,-100.00,North,353,4.0,9.0,51,0.00,,,0.00,244.000000,,2013-07-24 00:58:00,
2013-07-23 20:04:00,66.0,48.0,-100.00,NNW,336,4.0,9.0,52,0.00,,,0.00,167.000000,,2013-07-24 01:04:00,
2013-07-23 20:25:00,66.0,48.0,-100.00,NNW,336,4.0,9.0,52,0.00,,,0.00,167.000000,,2013-07-24 01:25:00,
2013-07-23 20:47:00,66.0,48.0,-100.00,NNW,336,4.0,9.0,52,0.00,,,0.00,167.000000,,2013-07-24 01:47:00,
2013-07-23 21:00:00,66.0,48.0,-100.00,NNW,336,4.0,9.0,52,0.00,,,0.00,167.000000,,2013-07-24 02:00:00,
2013-07-23 21:04:00,60.0,48.0,-100.00,North,352,0.0,5.0,64,0.00,,,0.00,20.000000,,2013-07-24 02:04:00,
2013-07-23 21:40:00,60.0,48.0,-100.00,North,352,0.0,5.0,64,0.00,,,0.00,20.000000,,2013-07-24 02:40:00,
2013-07-23 21:48:00,60.0,48.0,-100.00,North,352,0.0,5.0,64,0.00,,,0.00,20.000000,,2013-07-24 02:48:00,
2013-07-23 21:56:00,60.0,48.0,-100.00,North,352,0.0,5.0,64,0.00,,,0.00,20.000000,,2013-07-24 02:56:00,
2013-07-23 22:24:00,54.0,49.0,-100.00,ENE,60,0.0,4.0,82,0.00,,,0.00,0.000000,,2013-07-24 03:24:00,
2013-07-23 22:39:00,54.0,49.0,-100.00,ENE,60,0.0,4.0,82,0.00,,,0.00,0.000000,,2013-07-24 03:39:00,
2013-07-23 22:46:00,54.0,49.0,-100.00,ENE,60,0.0,4.0,82,0.00,,,0.00,0.000000,,2013-07-24 03:46:00,
2013-07-23 22:57:00,54.0,49.0,-100.00,ENE,60,0.0,4.0,82,0.00,,,0.00,0.000000,,2013-07-24 03:57:00,
2013-07-23 23:01:00,54.0,49.0,-100.00,ENE,60,0.0,4.0,82,0.00,,,0.00,0.000000,,2013-07-24 04:01:00,
2013-07-23 23:22:00,52.0,49.0,-100.00,SSW,211,0.0,3.0,89,0.00,,,0.00,0.000000,,2013-07-24 04:22:00,
2013-07-23 23:32:00,52.0,49.0,-100.00,SSW,211,0.0,3.0,89,0.00,,,0.00,0.000000,,2013-07-24 04:32:00,
2013-07-23 23:43:00,52.0,49.0,-100.00,SSW,211,0.0,3.0,89,0.00,,,0.00,0.000000,,2013-07-24 04:43:00,
2013-07-23 23:53:00,52.0,49.0,-100.00,SSW,211,0.0,3.0,89,0.00,,,0.00,0.000000,,2013-07-24 04:53:00,